time, Switch, Flow(0), Analog(2)
yyyy/mm/dd HH:MM:SS.fff, True=FILTERED|False=TOTAL, L/min, V
2023/07/04 23:00:04.983, True, 1.348, 0.153506
2023/07/04 23:00:05.487, True, 0.995, 0.153429
2023/07/04 23:00:05.991, True, 1.326, 0.151293
2023/07/04 23:00:06.487, True, 0.675, 0.153277
2023/07/04 23:00:06.990, True, 0.993, 0.152514
2023/07/04 23:00:07.495, True, 0.996, 0.153658
2023/07/04 23:00:07.991, True, 1.012, 0.153582
2023/07/04 23:00:08.495, True, 0.993, 0.152743
2023/07/04 23:00:08.999, True, 0.994, 0.152285
2023/07/04 23:00:09.495, True, 1.011, 0.151217
2023/07/04 23:00:09.998, True, 0.995, 0.153735
2023/07/04 23:00:10.503, True, 0.995, 0.152590
2023/07/04 23:00:10.999, True, 1.011, 0.155718
2023/07/04 23:00:11.503, True, 0.995, 0.153429
2023/07/04 23:00:12.007, True, 0.663, 0.153506
2023/07/04 23:00:12.503, True, 1.011, 0.154421
2023/07/04 23:00:13.007, True, 0.995, 0.152209
2023/07/04 23:00:13.511, True, 0.995, 0.152132
2023/07/04 23:00:14.007, True, 1.011, 0.153735
2023/07/04 23:00:14.511, True, 0.995, 0.153201
2023/07/04 23:00:15.015, True, 1.327, 0.153048
2023/07/04 23:00:15.511, True, 0.674, 0.153735
2023/07/04 23:00:16.015, True, 0.995, 0.154116
2023/07/04 23:00:16.519, True, 0.995, 0.153658
2023/07/04 23:00:17.015, True, 1.011, 0.151598
2023/07/04 23:00:17.519, True, 0.995, 0.153124
2023/07/04 23:00:18.023, True, 0.995, 0.153429
2023/07/04 23:00:18.519, True, 0.674, 0.152285
2023/07/04 23:00:19.023, True, 1.326, 0.153887
2023/07/04 23:00:19.527, True, 0.995, 0.153811
2023/07/04 23:00:20.023, True, 1.011, 0.152743
2023/07/04 23:00:20.527, True, 0.663, 0.153277
2023/07/04 23:00:21.031, True, 0.995, 0.151598
2023/07/04 23:00:21.526, True, 1.012, 0.154726
2023/07/04 23:00:22.031, True, 0.993, 0.153277
2023/07/04 23:00:22.535, True, 0.995, 0.153124
2023/07/04 23:00:23.031, True, 1.012, 0.151980
2023/07/04 23:00:23.535, True, 0.994, 0.153964
2023/07/04 23:00:24.039, True, 0.995, 0.150683
2023/07/04 23:00:24.543, True, 0.995, 0.153277
2023/07/04 23:00:25.039, True, 0.675, 0.153048
2023/07/04 23:00:25.543, True, 1.324, 0.153582
2023/07/04 23:00:26.047, True, 0.995, 0.152514
2023/07/04 23:00:26.542, True, 1.012, 0.152438
2023/07/04 23:00:27.047, True, 0.994, 0.154955
2023/07/04 23:00:27.551, True, 0.995, 0.152895
2023/07/04 23:00:28.047, True, 0.674, 0.153048
2023/07/04 23:00:28.551, True, 0.995, 0.152438
2023/07/04 23:00:29.055, True, 0.995, 0.152438
2023/07/04 23:00:29.551, True, 1.011, 0.153353
2023/07/04 23:00:30.055, True, 0.995, 0.152743
2023/07/04 23:00:30.559, True, 0.995, 0.152209
2023/07/04 23:00:31.063, True, 0.995, 0.153811
2023/07/04 23:00:31.559, True, 1.010, 0.153048
2023/07/04 23:00:32.063, True, 0.995, 0.155795
2023/07/04 23:00:32.567, True, 0.995, 0.154040
2023/07/04 23:00:33.063, True, 1.011, 0.151293
2023/07/04 23:00:33.567, True, 0.995, 0.155566
2023/07/04 23:00:34.071, True, 0.995, 0.154269
2023/07/04 23:00:34.566, True, 1.011, 0.151980
2023/07/04 23:00:35.071, True, 0.995, 0.153582
2023/07/04 23:00:35.575, True, 0.995, 0.153429
2023/07/04 23:00:36.071, True, 1.013, 0.152361
2023/07/04 23:00:36.575, True, 0.663, 0.153735
2023/07/04 23:00:37.071, True, 1.009, 0.151064
2023/07/04 23:00:37.574, True, 0.995, 0.152132
2023/07/04 23:00:38.079, True, 0.995, 0.153658
2023/07/04 23:00:38.583, True, 0.996, 0.152132
2023/07/04 23:00:39.079, True, 0.673, 0.153201
2023/07/04 23:00:39.583, True, 0.995, 0.154803
2023/07/04 23:00:40.087, True, 0.996, 0.152514
2023/07/04 23:00:40.583, True, 1.009, 0.153353
2023/07/04 23:00:41.087, True, 0.995, 0.154345
2023/07/04 23:00:41.591, True, 0.995, 0.151904
2023/07/04 23:00:42.087, True, 1.011, 0.152972
2023/07/04 23:00:42.591, True, 0.994, 0.151980
2023/07/04 23:00:43.095, True, 0.995, 0.153735
2023/07/04 23:00:43.591, True, 1.010, 0.155337
2023/07/04 23:00:44.095, True, 0.995, 0.152132
2023/07/04 23:00:44.599, True, 0.995, 0.152361
2023/07/04 23:00:45.103, True, 0.996, 0.151598
2023/07/04 23:00:45.599, True, 1.011, 0.152590
2023/07/04 23:00:46.103, True, 0.662, 0.153277
2023/07/04 23:00:46.607, True, 0.995, 0.153048
2023/07/04 23:00:47.103, True, 1.011, 0.154040
2023/07/04 23:00:47.607, True, 0.995, 0.152743
2023/07/04 23:00:48.111, True, 0.995, 0.152514
2023/07/04 23:00:48.607, True, 1.011, 0.153658
2023/07/04 23:00:49.111, True, 0.995, 0.152361
2023/07/04 23:00:49.615, True, 0.995, 0.153201
2023/07/04 23:00:50.111, True, 1.011, 0.150759
2023/07/04 23:00:50.615, True, 0.663, 0.154574
2023/07/04 23:00:51.119, True, 0.995, 0.151751
2023/07/04 23:00:51.623, True, 0.995, 0.153048
2023/07/04 23:00:52.119, True, 1.011, 0.154498
2023/07/04 23:00:52.623, True, 0.995, 0.150301
2023/07/04 23:00:53.127, True, 0.995, 0.152438
2023/07/04 23:00:53.623, True, 0.674, 0.152667
2023/07/04 23:00:54.127, True, 0.994, 0.153506
2023/07/04 23:00:54.631, True, 0.995, 0.153201
2023/07/04 23:00:55.135, True, 0.997, 0.153506
2023/07/04 23:00:55.631, True, 1.009, 0.153124
2023/07/04 23:00:56.135, True, 0.995, 0.153353
2023/07/04 23:00:56.639, True, 0.995, 0.152438
2023/07/04 23:00:57.135, True, 1.011, 0.152132
2023/07/04 23:00:57.639, True, 0.663, 0.152056
2023/07/04 23:00:58.143, True, 0.996, 0.152209
2023/07/04 23:00:58.639, True, 1.009, 0.150759
2023/07/04 23:00:59.143, True, 0.995, 0.151446
2023/07/04 23:00:59.647, True, 0.995, 0.153429
2023/07/04 23:01:00.151, True, 0.664, 0.152514
2023/07/04 23:01:00.647, True, 1.011, 0.151675
2023/07/04 23:01:01.151, True, 0.993, 0.150988
2023/07/04 23:01:01.655, True, 0.995, 0.153201
2023/07/04 23:01:02.151, True, 1.011, 0.153353
2023/07/04 23:01:02.655, True, 0.995, 0.152895
2023/07/04 23:01:03.159, True, 0.995, 0.152132
2023/07/04 23:01:03.655, True, 1.011, 0.152895
2023/07/04 23:01:04.159, True, 0.995, 0.153506
2023/07/04 23:01:04.663, True, 0.995, 0.152667
2023/07/04 23:01:05.167, True, 0.994, 0.152056
2023/07/04 23:01:05.663, True, 1.011, 0.155795
2023/07/04 23:01:06.167, True, 0.995, 0.154040
2023/07/04 23:01:06.671, True, 0.995, 0.157778
2023/07/04 23:01:07.175, True, 0.995, 0.153658
2023/07/04 23:01:07.671, True, 1.012, 0.155337
2023/07/04 23:01:08.175, True, 0.994, 0.160983
2023/07/04 23:01:08.678, True, 0.994, 0.156252
2023/07/04 23:01:09.175, True, 1.012, 0.154955
2023/07/04 23:01:09.678, True, 0.993, 0.156558
2023/07/04 23:01:10.183, True, 0.995, 0.154726
2023/07/04 23:01:10.679, True, 1.011, 0.156176
2023/07/04 23:01:11.183, True, 0.995, 0.155489
2023/07/04 23:01:11.686, True, 0.994, 0.155337
2023/07/04 23:01:12.182, True, 0.674, 0.156329
2023/07/04 23:01:12.686, True, 0.995, 0.156023
2023/07/04 23:01:13.190, True, 0.994, 0.158160
2023/07/04 23:01:13.687, True, 1.011, 0.158923
2023/07/04 23:01:14.191, True, 0.995, 0.155718
2023/07/04 23:01:14.694, True, 0.995, 0.155642
2023/07/04 23:01:15.190, True, 1.011, 0.155337
2023/07/04 23:01:15.695, True, 0.995, 0.158236
2023/07/04 23:01:16.199, True, 0.996, 0.154955
2023/07/04 23:01:16.702, True, 0.995, 0.156710
2023/07/04 23:01:17.199, True, 0.673, 0.158999
2023/07/04 23:01:17.703, True, 0.996, 0.157168
2023/07/04 23:01:18.207, True, 0.994, 0.155108
2023/07/04 23:01:18.703, True, 1.011, 0.157321
2023/07/04 23:01:19.206, True, 0.995, 0.157778
2023/07/04 23:01:19.711, True, 0.995, 0.157626
2023/07/04 23:01:20.207, True, 1.011, 0.156023
2023/07/04 23:01:20.711, True, 0.995, 0.156023
2023/07/04 23:01:21.214, True, 0.994, 0.158694
2023/07/04 23:01:21.711, True, 1.011, 0.157092
2023/07/04 23:01:22.215, True, 0.995, 0.157168
2023/07/04 23:01:22.719, True, 0.995, 0.158465
2023/07/04 23:01:23.223, True, 0.995, 0.158236
2023/07/04 23:01:23.719, True, 0.673, 0.159533
2023/07/04 23:01:24.223, True, 0.995, 0.158160
2023/07/04 23:01:24.727, True, 0.996, 0.158541
2023/07/04 23:01:25.223, True, 1.011, 0.158389
2023/07/04 23:01:25.727, True, 0.994, 0.159304
2023/07/04 23:01:26.231, True, 0.995, 0.159609
2023/07/04 23:01:26.727, True, 0.675, 0.158999
2023/07/04 23:01:27.231, True, 0.994, 0.159686
2023/07/04 23:01:27.734, True, 0.995, 0.160906
2023/07/04 23:01:28.231, True, 1.011, 0.158389
2023/07/04 23:01:28.735, True, 0.995, 0.158007
2023/07/04 23:01:29.239, True, 0.995, 0.156939
2023/07/04 23:01:29.743, True, 0.995, 0.159838
2023/07/04 23:01:30.239, True, 1.012, 0.160143
2023/07/04 23:01:30.743, True, 0.994, 0.159304
2023/07/04 23:01:31.247, True, 0.996, 0.160220
2023/07/04 23:01:31.742, True, 1.009, 0.159686
2023/07/04 23:01:32.247, True, 0.995, 0.160067
2023/07/04 23:01:32.751, True, 0.995, 0.159762
2023/07/04 23:01:33.247, True, 1.011, 0.160296
2023/07/04 23:01:33.751, True, 0.995, 0.158694
2023/07/04 23:01:34.255, True, 0.995, 0.157702
2023/07/04 23:01:34.758, True, 0.995, 0.158770
2023/07/04 23:01:35.255, True, 0.674, 0.159991
2023/07/04 23:01:35.758, True, 0.995, 0.159304
2023/07/04 23:01:36.263, True, 0.995, 0.159991
2023/07/04 23:01:36.758, True, 1.011, 0.158083
2023/07/04 23:01:37.263, True, 0.996, 0.161669
2023/07/04 23:01:37.767, True, 0.995, 0.160220
2023/07/04 23:01:38.263, True, 1.009, 0.158541
2023/07/04 23:01:38.767, True, 0.996, 0.160372
2023/07/04 23:01:39.270, True, 0.994, 0.159915
2023/07/04 23:01:39.767, True, 1.012, 0.160983
2023/07/04 23:01:40.271, True, 0.994, 0.159686
2023/07/04 23:01:40.775, True, 0.995, 0.160143
2023/07/04 23:01:41.271, True, 0.674, 0.159533
2023/07/04 23:01:41.775, True, 0.995, 0.160906
2023/07/04 23:01:42.279, True, 0.994, 0.159152
2023/07/04 23:01:42.775, True, 1.011, 0.160067
2023/07/04 23:01:43.278, True, 0.995, 0.159075
2023/07/04 23:01:43.783, True, 0.995, 0.161517
2023/07/04 23:01:44.279, True, 1.011, 0.160220
2023/07/04 23:01:44.783, True, 0.995, 0.160220
2023/07/04 23:01:45.287, True, 0.664, 0.159075
2023/07/04 23:01:45.782, True, 1.010, 0.158846
2023/07/04 23:01:46.287, True, 0.995, 0.161288
2023/07/04 23:01:46.791, True, 0.995, 0.159991
2023/07/04 23:01:47.287, True, 1.012, 0.160372
2023/07/04 23:01:47.791, True, 0.994, 0.162966
2023/07/04 23:01:48.295, True, 0.994, 0.161364
2023/07/04 23:01:48.791, True, 1.012, 0.159304
2023/07/04 23:01:49.295, True, 0.994, 0.159228
2023/07/04 23:01:49.799, True, 0.663, 0.160830
2023/07/04 23:01:50.294, True, 1.011, 0.158694
2023/07/04 23:01:50.799, True, 0.995, 0.157855
2023/07/04 23:01:51.303, True, 0.995, 0.161135
2023/07/04 23:01:51.799, True, 1.013, 0.160449
2023/07/04 23:01:52.303, True, 0.662, 0.159533
2023/07/04 23:01:52.807, True, 0.994, 0.160143
2023/07/04 23:01:53.303, True, 1.011, 0.160754
2023/07/04 23:01:53.807, True, 0.995, 0.159686
2023/07/04 23:01:54.303, True, 1.011, 0.160983
2023/07/04 23:01:54.807, True, 0.663, 0.158618
2023/07/04 23:01:55.311, True, 0.995, 0.161059
2023/07/04 23:01:55.807, True, 1.011, 0.158007
2023/07/04 23:01:56.311, True, 0.995, 0.159380
2023/07/04 23:01:56.815, True, 0.996, 0.163424
2023/07/04 23:01:57.311, True, 0.673, 0.159686
2023/07/04 23:01:57.815, True, 0.995, 0.159152
2023/07/04 23:01:58.319, True, 0.995, 0.161975
2023/07/04 23:01:58.815, True, 1.011, 0.157321
2023/07/04 23:01:59.319, True, 0.996, 0.159609
2023/07/04 23:01:59.823, True, 0.994, 0.157321
2023/07/04 23:02:00.319, True, 0.674, 0.161593
2023/07/04 23:02:00.823, True, 0.995, 0.160449
2023/07/04 23:02:01.327, True, 0.995, 0.162356
2023/07/04 23:02:01.831, True, 0.996, 0.160525
2023/07/04 23:02:02.327, True, 1.009, 0.159152
2023/07/04 23:02:02.831, True, 0.995, 0.158618
2023/07/04 23:02:03.334, True, 0.996, 0.160296
2023/07/04 23:02:03.831, True, 0.673, 0.160220
2023/07/04 23:02:04.335, True, 0.995, 0.159304
2023/07/04 23:02:04.839, True, 0.995, 0.158541
2023/07/04 23:02:05.335, True, 1.011, 0.161975
2023/07/04 23:02:05.839, True, 0.995, 0.160296
2023/07/04 23:02:06.343, True, 0.995, 0.161288
2023/07/04 23:02:06.839, True, 0.674, 0.160830
2023/07/04 23:02:07.343, True, 0.995, 0.159838
2023/07/04 23:02:07.847, True, 0.995, 0.159991
2023/07/04 23:02:08.343, True, 1.011, 0.160067
2023/07/04 23:02:08.847, True, 0.995, 0.160220
2023/07/04 23:02:09.351, True, 0.995, 0.160754
2023/07/04 23:02:09.847, True, 0.674, 0.160372
2023/07/04 23:02:10.351, True, 0.995, 0.160220
2023/07/04 23:02:10.855, True, 0.995, 0.159304
2023/07/04 23:02:11.351, True, 1.011, 0.160983
2023/07/04 23:02:11.855, True, 0.995, 0.160830
2023/07/04 23:02:12.350, True, 0.674, 0.160601
2023/07/04 23:02:12.854, True, 0.994, 0.158923
2023/07/04 23:02:13.359, True, 0.996, 0.158923
2023/07/04 23:02:13.855, True, 1.011, 0.161212
2023/07/04 23:02:14.359, True, 0.994, 0.159838
2023/07/04 23:02:14.863, True, 0.996, 0.160754
2023/07/04 23:02:15.359, True, 1.011, 0.160830
2023/07/04 23:02:15.863, True, 0.995, 0.160143
2023/07/04 23:02:16.367, True, 0.995, 0.159762
2023/07/04 23:02:16.863, True, 1.011, 0.161517
2023/07/04 23:02:17.367, True, 0.663, 0.161135
2023/07/04 23:02:17.871, True, 0.995, 0.160372
2023/07/04 23:02:18.375, True, 0.993, 0.158846
2023/07/04 23:02:18.871, True, 1.348, 0.159686
2023/07/04 23:02:19.375, True, 0.995, 0.160678
2023/07/04 23:02:19.878, True, 0.663, 0.159762
2023/07/04 23:02:20.383, True, 0.995, 0.159457
2023/07/04 23:02:20.879, True, 1.011, 0.159991
2023/07/04 23:02:21.383, True, 0.995, 0.162051
2023/07/04 23:02:21.887, True, 0.995, 0.161212
2023/07/04 23:02:22.383, True, 1.013, 0.158999
2023/07/04 23:02:22.887, True, 0.662, 0.160754
2023/07/04 23:02:23.391, True, 0.995, 0.159762
2023/07/04 23:02:23.887, True, 1.011, 0.159380
2023/07/04 23:02:24.390, True, 0.995, 0.158465
2023/07/04 23:02:24.895, True, 0.995, 0.161746
2023/07/04 23:02:25.399, True, 0.995, 0.160678
2023/07/04 23:02:25.895, True, 1.011, 0.159533
2023/07/04 23:02:26.399, True, 0.995, 0.158846
2023/07/04 23:02:26.903, True, 0.995, 0.159533
2023/07/04 23:02:27.399, True, 1.011, 0.159991
2023/07/04 23:02:27.903, True, 0.663, 0.163195
2023/07/04 23:02:28.407, True, 0.995, 0.158846
2023/07/04 23:02:28.903, True, 1.011, 0.158618
2023/07/04 23:02:29.407, True, 0.996, 0.159838
2023/07/04 23:02:29.911, True, 0.994, 0.160906
2023/07/04 23:02:30.407, True, 0.674, 0.159686
2023/07/04 23:02:30.911, True, 0.995, 0.160754
2023/07/04 23:02:31.415, True, 0.995, 0.158923
2023/07/04 23:02:31.919, True, 0.995, 0.160830
2023/07/04 23:02:32.415, True, 1.011, 0.159838
2023/07/04 23:02:32.918, True, 0.995, 0.161517
2023/07/04 23:02:33.423, True, 0.995, 0.161822
2023/07/04 23:02:33.919, True, 1.013, 0.161898
2023/07/04 23:02:34.423, True, 0.993, 0.161288
2023/07/04 23:02:34.926, True, 0.995, 0.160983
2023/07/04 23:02:35.423, True, 1.011, 0.158923
2023/07/04 23:02:35.926, True, 0.995, 0.160601
2023/07/04 23:02:36.430, True, 0.995, 0.160678
2023/07/04 23:02:36.926, True, 0.674, 0.160220
2023/07/04 23:02:37.431, True, 0.996, 0.160678
2023/07/04 23:02:37.934, True, 0.663, 0.159228
2023/07/04 23:02:38.431, True, 1.011, 0.161059
2023/07/04 23:02:38.935, True, 0.994, 0.160601
2023/07/04 23:02:39.439, True, 0.995, 0.161059
2023/07/04 23:02:39.943, True, 0.995, 0.161212
2023/07/04 23:02:40.438, True, 1.011, 0.159686
2023/07/04 23:02:40.943, True, 0.995, 0.160754
2023/07/04 23:02:41.446, True, 0.663, 0.160067
2023/07/04 23:02:41.942, True, 1.011, 0.159915
2023/07/04 23:02:42.447, True, 0.995, 0.160067
2023/07/04 23:02:42.951, True, 0.995, 0.160220
2023/07/04 23:02:43.447, True, 1.010, 0.159915
2023/07/04 23:02:43.951, True, 0.995, 0.158541
2023/07/04 23:02:44.447, True, 1.012, 0.160449
2023/07/04 23:02:44.951, True, 0.994, 0.161364
2023/07/04 23:02:45.455, True, 0.995, 0.160067
2023/07/04 23:02:45.959, True, 0.664, 0.160296
2023/07/04 23:02:46.455, True, 1.009, 0.159762
2023/07/04 23:02:46.959, True, 0.994, 0.160754
2023/07/04 23:02:47.463, True, 0.996, 0.160296
2023/07/04 23:02:47.959, True, 1.011, 0.161212
2023/07/04 23:02:48.463, True, 0.995, 0.158236
2023/07/04 23:02:48.967, True, 0.663, 0.159304
2023/07/04 23:02:49.463, True, 1.012, 0.159380
2023/07/04 23:02:49.967, True, 0.995, 0.158694
2023/07/04 23:02:50.471, True, 0.994, 0.160067
2023/07/04 23:02:50.967, True, 1.012, 0.159762
2023/07/04 23:02:51.471, True, 0.995, 0.160678
2023/07/04 23:02:51.975, True, 0.995, 0.159228
2023/07/04 23:02:52.471, True, 1.010, 0.159838
2023/07/04 23:02:52.974, True, 0.663, 0.159457
2023/07/04 23:02:53.479, True, 0.995, 0.159686
2023/07/04 23:02:53.975, True, 1.012, 0.159991
2023/07/04 23:02:54.479, True, 0.995, 0.158694
2023/07/04 23:02:54.983, True, 0.993, 0.161669
2023/07/04 23:02:55.479, True, 0.674, 0.160296
2023/07/04 23:02:55.983, True, 0.996, 0.158846
2023/07/04 23:02:56.487, True, 0.996, 0.158999
2023/07/04 23:02:56.983, True, 0.673, 0.157321
2023/07/04 23:02:57.487, True, 0.995, 0.157931
2023/07/04 23:02:57.991, True, 0.997, 0.160830
2023/07/04 23:02:58.487, True, 1.010, 0.160678
2023/07/04 23:02:58.991, True, 0.994, 0.159686
2023/07/04 23:02:59.495, True, 0.995, 0.160754
2023/07/04 23:02:59.991, True, 1.011, 0.159533
2023/07/04 23:03:00.495, True, 0.663, 0.160525
2023/07/04 23:03:00.999, True, 0.995, 0.159686
2023/07/04 23:03:01.495, True, 1.011, 0.159686
2023/07/04 23:03:01.999, True, 0.995, 0.159380
2023/07/04 23:03:02.503, True, 0.995, 0.159152
2023/07/04 23:03:02.999, True, 1.011, 0.159152
2023/07/04 23:03:03.503, True, 0.995, 0.159838
2023/07/04 23:03:03.999, True, 0.674, 0.158923
2023/07/04 23:03:04.503, True, 0.995, 0.161212
2023/07/04 23:03:05.007, True, 0.995, 0.159915
2023/07/04 23:03:05.503, True, 1.011, 0.158846
2023/07/04 23:03:06.007, True, 0.995, 0.159915
2023/07/04 23:03:06.511, True, 0.995, 0.157626
2023/07/04 23:03:07.015, True, 0.995, 0.158236
2023/07/04 23:03:07.511, True, 1.013, 0.158541
2023/07/04 23:03:08.015, True, 0.993, 0.159380
2023/07/04 23:03:08.511, True, 0.674, 0.158923
2023/07/04 23:03:09.015, True, 0.995, 0.157702
2023/07/04 23:03:09.519, True, 0.995, 0.158923
2023/07/04 23:03:10.015, True, 1.011, 0.159915
2023/07/04 23:03:10.519, True, 0.995, 0.158923
2023/07/04 23:03:11.023, True, 0.994, 0.159915
2023/07/04 23:03:11.519, True, 1.011, 0.158541
2023/07/04 23:03:12.023, True, 0.995, 0.158694
2023/07/04 23:03:12.527, True, 0.995, 0.159380
2023/07/04 23:03:13.023, True, 0.674, 0.158770
2023/07/04 23:03:13.527, True, 0.995, 0.158389
2023/07/04 23:03:14.031, True, 0.995, 0.160296
2023/07/04 23:03:14.526, True, 1.011, 0.160296
2023/07/04 23:03:15.031, True, 0.995, 0.160601
2023/07/04 23:03:15.535, True, 0.663, 0.161364
2023/07/04 23:03:16.031, True, 1.011, 0.161593
2023/07/04 23:03:16.535, True, 0.995, 0.159152
2023/07/04 23:03:17.039, True, 0.995, 0.161288
2023/07/04 23:03:17.535, True, 1.011, 0.157931
2023/07/04 23:03:18.038, True, 0.995, 0.161059
2023/07/04 23:03:18.543, True, 0.996, 0.160220
2023/07/04 23:03:19.039, True, 1.010, 0.161364
2023/07/04 23:03:19.543, True, 0.663, 0.160525
2023/07/04 23:03:20.047, True, 0.995, 0.159152
2023/07/04 23:03:20.551, True, 0.995, 0.160067
2023/07/04 23:03:21.047, True, 1.012, 0.160067
2023/07/04 23:03:21.551, True, 0.994, 0.157855
2023/07/04 23:03:22.055, True, 0.996, 0.158541
2023/07/04 23:03:22.551, True, 0.673, 0.159152
2023/07/04 23:03:23.055, True, 0.995, 0.159686
2023/07/04 23:03:23.559, True, 0.995, 0.159762
2023/07/04 23:03:24.063, True, 0.995, 0.157549
2023/07/04 23:03:24.559, True, 1.011, 0.157626
2023/07/04 23:03:25.063, True, 0.663, 0.159762
2023/07/04 23:03:25.567, True, 0.995, 0.159228
2023/07/04 23:03:26.063, True, 1.011, 0.158694
2023/07/04 23:03:26.567, True, 0.663, 0.159991
2023/07/04 23:03:27.071, True, 0.995, 0.161593
2023/07/04 23:03:27.567, True, 1.012, 0.159991
2023/07/04 23:03:28.071, True, 0.994, 0.161135
2023/07/04 23:03:28.575, True, 0.995, 0.159228
2023/07/04 23:03:29.071, True, 1.011, 0.157168
2023/07/04 23:03:29.575, True, 0.663, 0.157855
2023/07/04 23:03:30.079, True, 0.995, 0.158694
2023/07/04 23:03:30.575, True, 1.011, 0.158389
2023/07/04 23:03:31.079, True, 0.995, 0.159533
2023/07/04 23:03:31.583, True, 0.995, 0.159228
2023/07/04 23:03:32.079, True, 1.011, 0.158541
2023/07/04 23:03:32.583, True, 0.664, 0.158618
2023/07/04 23:03:33.087, True, 0.993, 0.157092
2023/07/04 23:03:33.583, True, 1.011, 0.158541
2023/07/04 23:03:34.087, True, 0.995, 0.158999
2023/07/04 23:03:34.591, True, 0.995, 0.158465
2023/07/04 23:03:35.095, True, 0.663, 0.159915
2023/07/04 23:03:35.591, True, 1.010, 0.158389
2023/07/04 23:03:36.095, True, 0.995, 0.158389
2023/07/04 23:03:36.599, True, 0.995, 0.160449
2023/07/04 23:03:37.095, True, 1.011, 0.159304
2023/07/04 23:03:37.599, True, 0.995, 0.157321
2023/07/04 23:03:38.103, True, 0.663, 0.159609
2023/07/04 23:03:38.599, True, 1.011, 0.157015
2023/07/04 23:03:39.103, True, 0.995, 0.157702
2023/07/04 23:03:39.607, True, 0.995, 0.156710
2023/07/04 23:03:40.103, True, 1.011, 0.156405
2023/07/04 23:03:40.607, True, 0.995, 0.159152
2023/07/04 23:03:41.111, True, 0.663, 0.158694
2023/07/04 23:03:41.607, True, 1.011, 0.159152
2023/07/04 23:03:42.111, True, 0.995, 0.155718
2023/07/04 23:03:42.615, True, 0.995, 0.158465
2023/07/04 23:03:43.119, True, 0.995, 0.159380
2023/07/04 23:03:43.615, True, 0.674, 0.158694
2023/07/04 23:03:44.119, True, 0.995, 0.156100
2023/07/04 23:03:44.622, True, 0.995, 0.157168
2023/07/04 23:03:45.119, True, 1.011, 0.160678
2023/07/04 23:03:45.623, True, 0.663, 0.158923
2023/07/04 23:03:46.127, True, 0.995, 0.157931
2023/07/04 23:03:46.623, True, 1.011, 0.158846
2023/07/04 23:03:47.127, True, 0.995, 0.157626
2023/07/04 23:03:47.631, True, 0.995, 0.159380
2023/07/04 23:03:48.126, True, 0.675, 0.160525
2023/07/04 23:03:48.631, True, 0.993, 0.156481
2023/07/04 23:03:49.135, True, 0.995, 0.158236
2023/07/04 23:03:49.631, True, 1.011, 0.158618
2023/07/04 23:03:50.135, True, 1.326, 0.158770
2023/07/04 23:03:50.638, True, 0.995, 0.159075
2023/07/04 23:03:51.143, True, 0.663, 0.158007
2023/07/04 23:03:51.639, True, 1.011, 0.159609
2023/07/04 23:03:52.143, True, 0.995, 0.158007
2023/07/04 23:03:52.647, True, 0.995, 0.157778
2023/07/04 23:03:53.143, True, 0.674, 0.155947
2023/07/04 23:03:53.647, True, 0.996, 0.156481
2023/07/04 23:03:54.151, True, 0.994, 0.156863
2023/07/04 23:03:54.647, True, 1.011, 0.158618
2023/07/04 23:03:55.151, True, 0.995, 0.159915
2023/07/04 23:03:55.655, True, 0.994, 0.158465
2023/07/04 23:03:56.151, True, 0.674, 0.159075
2023/07/04 23:03:56.655, True, 0.995, 0.158007
2023/07/04 23:03:57.159, True, 0.995, 0.157778
2023/07/04 23:03:57.655, True, 1.011, 0.158541
2023/07/04 23:03:58.159, True, 0.995, 0.158999
2023/07/04 23:03:58.663, True, 0.995, 0.157092
2023/07/04 23:03:59.159, True, 1.011, 0.160830
2023/07/04 23:03:59.663, True, 0.995, 0.157702
2023/07/04 23:04:00.166, True, 0.995, 0.157855
2023/07/04 23:04:00.663, True, 0.674, 0.159075
2023/07/04 23:04:01.167, True, 0.995, 0.158236
2023/07/04 23:04:01.671, True, 0.996, 0.159075
2023/07/04 23:04:02.175, True, 0.993, 0.160143
2023/07/04 23:04:02.671, True, 1.011, 0.158618
2023/07/04 23:04:03.174, True, 0.995, 0.157397
2023/07/04 23:04:03.678, True, 0.663, 0.155947
2023/07/04 23:04:04.175, True, 1.011, 0.157473
2023/07/04 23:04:04.678, True, 0.995, 0.159380
2023/07/04 23:04:05.175, True, 1.012, 0.158923
2023/07/04 23:04:05.679, True, 0.995, 0.159152
2023/07/04 23:04:06.183, True, 0.994, 0.159228
2023/07/04 23:04:06.679, True, 0.674, 0.158465
2023/07/04 23:04:07.182, True, 0.995, 0.157092
2023/07/04 23:04:07.687, True, 0.995, 0.157015
2023/07/04 23:04:08.191, True, 0.996, 0.157549
2023/07/04 23:04:08.687, True, 0.673, 0.159686
2023/07/04 23:04:09.191, True, 0.995, 0.156481
2023/07/04 23:04:09.687, True, 1.011, 0.158541
2023/07/04 23:04:10.191, True, 0.997, 0.160067
2023/07/04 23:04:10.695, True, 0.993, 0.158770
2023/07/04 23:04:11.191, True, 0.673, 0.156939
2023/07/04 23:04:11.695, True, 0.996, 0.159075
2023/07/04 23:04:12.198, True, 0.994, 0.157778
2023/07/04 23:04:12.694, True, 1.011, 0.157321
2023/07/04 23:04:13.199, True, 0.996, 0.156786
2023/07/04 23:04:13.703, True, 0.663, 0.157473
2023/07/04 23:04:14.207, True, 0.995, 0.159075